sat.trackr.live / text

‹ back to catalog

ONEWEB-0388

NORAD 49314 · 2021-090AM

PAYLOAD ACTIVE UNKNOWN

§ Identity

Operator
Country
UK
Launch date
2021-10-14
Launch site
VOSTO
Launch vehicle
Mass (kg)
RCS (m²)

Purposes: comms

External: N2YO · Heavens-Above · Gunter

§ Orbital elements

Epoch: 2026-09-14T08:10:55.902720Z

Period
109.11 min
Inclination
87.9108°
Eccentricity
0.0002049
Mean motion
13.19727529 rev/d
Perigee alt
1,184.2 km
Apogee alt
1,187.3 km
Semi-major
7,563.9 km
B*
1.5594e-4
RAAN
287.2071°
Arg perigee
94.8488°
Mean anomaly
265.2879°
Rev number
23,817

§ Raw data

ONEWEB-03881 49314U 21090AM  26257.34092480  .00000075  00000+0  15594-3 0  99932 49314  87.9108 287.2071 0002049  94.8488 265.2879 13.19727529238175

JSON: /api/v1/satellites/49314 · /tle

For live sub-satellite position, see the globe view (requires WebGL).

§ Visibility from observer

Set your observer location to see the next 7 days of passes ≥ 10°. The values pass through the URL so the page stays shareable.

No JS? Fill the form by hand. The geolocation button needs JavaScript.